,,,PA_Meas_PMT16A,,PR_Meas_QMR101_102,,RH_Meas_QMH101,,SR_Meas_QMS101,,TA_Meas_QMH101,,GenWind,,GenWind,
date,time,status,PA,status,PR,status,RH,status,SR,status,TA,status,DirAvg,status,SpdAvg,
2010-08-17, 00:00:04,VALID,1004.04,VALID,0,INVALID,117.103,VALID,0,VALID,25.6681,VALID,352,VALID,0.990625,
2010-08-17, 00:01:04,VALID,1003.98,VALID,0,INVALID,117.241,VALID,0,VALID,25.5902,VALID,352,VALID,0.8375,
2010-08-17, 00:02:04,VALID,1003.99,VALID,0,INVALID,117.447,VALID,0.100563,VALID,25.5707,VALID,351,VALID,1.08555,
2010-08-17, 00:03:04,VALID,1004.01,VALID,0,INVALID,117.592,VALID,0,VALID,25.4928,VALID,351,VALID,0.821875,
2010-08-17, 00:04:04,VALID,1004,VALID,0,INVALID,117.729,VALID,0,VALID,25.4344,VALID,355,VALID,0.871094,
2010-08-17, 00:05:04,VALID,1004.05,VALID,0,INVALID,117.889,VALID,0.100563,VALID,25.3351,VALID,355,VALID,0.922656,
2010-08-17, 00:06:04,VALID,1003.99,VALID,0,INVALID,118.019,VALID,0,VALID,25.3176,VALID,356,VALID,0.916797,
2010-08-17, 00:07:04,VALID,1003.96,VALID,0,INVALID,118.118,VALID,0.100563,VALID,25.2786,VALID,353,VALID,0.908203,
2010-08-17, 00:08:04,VALID,1003.94,VALID,0,INVALID,118.194,VALID,0,VALID,25.3,VALID,354,VALID,1.07187,
2010-08-17, 00:09:04,VALID,1003.92,VALID,0,INVALID,118.202,VALID,0,VALID,25.2981,VALID,357,VALID,0.924219,
2010-08-17, 00:10:04,VALID,1003.92,VALID,0,INVALID,118.255,VALID,0,VALID,25.3,VALID,359,VALID,0.98125,
2010-08-17, 00:11:04,VALID,1003.94,VALID,0,INVALID,118.217,VALID,0,VALID,25.2981,VALID,357,VALID,1.1082,
2010-08-17, 00:12:04,VALID,1003.89,VALID,0,INVALID,118.225,VALID,0,VALID,25.2981,VALID,356,VALID,1.11211,
2010-08-17, 00:13:04,VALID,1003.87,VALID,0,INVALID,118.248,VALID,0,VALID,25.3176,VALID,354,VALID,1.03086,
2010-08-17, 00:14:04,VALID,1003.88,VALID,0,INVALID,118.225,VALID,0,VALID,25.337,VALID,356,VALID,1.11719,
2010-08-17, 00:15:04,VALID,1003.87,VALID,0,INVALID,118.225,VALID,0,VALID,25.3955,VALID,11,VALID,1.24336,
2010-08-17, 00:16:04,VALID,1003.84,VALID,0,INVALID,118.24,VALID,0.100563,VALID,25.4734,VALID,353,VALID,1.44531,
2010-08-17, 00:17:04,VALID,1003.84,VALID,0,INVALID,118.148,VALID,0.100563,VALID,25.5707,VALID,360,VALID,1.13281,
2010-08-17, 00:18:04,VALID,1003.85,VALID,0,INVALID,117.973,VALID,0,VALID,25.6292,VALID,12,VALID,1.30078,
2010-08-17, 00:19:04,VALID,1003.8,VALID,0,INVALID,117.82,VALID,0,VALID,25.6272,VALID,360,VALID,0.900391,
2010-08-17, 00:20:04,VALID,1003.79,VALID,0,INVALID,117.614,VALID,0,VALID,25.6876,VALID,357,VALID,0.977344,
2010-08-17, 00:21:04,VALID,1003.79,VALID,0,INVALID,117.347,VALID,0.100563,VALID,25.7285,VALID,356,VALID,1.08438,
2010-08-17, 00:22:04,VALID,1003.72,VALID,0,INVALID,117.027,VALID,0,VALID,25.6876,VALID,360,VALID,1.47109,
2010-08-17, 00:23:04,VALID,1003.72,VALID,0,INVALID,116.668,VALID,0,VALID,25.7265,VALID,358,VALID,1.29023,
2010-08-17, 00:24:04,VALID,1003.7,VALID,0,INVALID,116.104,VALID,0.100563,VALID,25.7265,VALID,356,VALID,1.16797,
2010-08-17, 00:25:04,VALID,1003.67,VALID,0,INVALID,116.394,VALID,0,VALID,25.744,VALID,20,VALID,1.4207,
2010-08-17, 00:26:04,VALID,1003.61,VALID,0,INVALID,115.402,VALID,0,VALID,25.7635,VALID,360,VALID,1.47969,
2010-08-17, 00:27:04,VALID,1003.57,VALID,0,INVALID,114.715,VALID,0,VALID,25.8239,VALID,6,VALID,1.98984,
2010-08-17, 00:28:04,VALID,1003.52,VALID,0,INVALID,110.588,VALID,0,VALID,25.8823,VALID,2,VALID,1.5918,
2010-08-17, 00:29:04,VALID,1003.52,VALID,0,VALID,104,VALID,0,VALID,25.9213,VALID,3,VALID,1.5043,
2010-08-17, 00:30:04,VALID,1003.5,VALID,0,VALID,101.09,VALID,0.100563,VALID,25.8998,VALID,1,VALID,1.77578,
2010-08-17, 00:31:04,VALID,1003.49,VALID,0,VALID,98.9466,VALID,0,VALID,25.9408,VALID,360,VALID,1.57969,
2010-08-17, 00:32:04,VALID,1003.5,VALID,0,VALID,97.5581,VALID,0,VALID,25.9797,VALID,6,VALID,1.49453,
2010-08-17, 00:33:04,VALID,1003.47,VALID,0,VALID,96.246,VALID,0,VALID,25.9992,VALID,2,VALID,1.14727,
2010-08-17, 00:34:04,VALID,1003.45,VALID,0,VALID,94.9796,VALID,0,VALID,26.0187,VALID,1,VALID,1.3457,
2010-08-17, 00:35:04,VALID,1003.45,VALID,0,VALID,94.8728,VALID,0,VALID,25.9992,VALID,360,VALID,1.72109,
2010-08-17, 00:36:04,VALID,1003.44,VALID,0,VALID,95.2237,VALID,0,VALID,25.9992,VALID,4,VALID,1.81562,
2010-08-17, 00:37:04,VALID,1003.42,VALID,0,VALID,94.8422,VALID,0.100563,VALID,26.0187,VALID,14,VALID,1.48008,
2010-08-17, 00:38:04,VALID,1003.44,VALID,0,VALID,94.8041,VALID,0,VALID,25.9992,VALID,6,VALID,1.38086,
2010-08-17, 00:39:04,VALID,1003.41,VALID,0,VALID,95.3076,VALID,0.100563,VALID,26.0401,VALID,13,VALID,1.56211,
2010-08-17, 00:40:04,VALID,1003.41,VALID,0,VALID,95.9789,VALID,0,VALID,26.0012,VALID,2,VALID,1.54141,
2010-08-17, 00:41:04,VALID,1003.42,VALID,0,VALID,96.0781,VALID,0,VALID,26.0012,VALID,7,VALID,1.88594,
2010-08-17, 00:42:04,VALID,1003.42,VALID,0,VALID,95.773,VALID,0.100563,VALID,25.9797,VALID,5,VALID,1.46406,
2010-08-17, 00:43:04,VALID,1003.46,VALID,0,VALID,95.094,VALID,0,VALID,26.0012,VALID,10,VALID,1.79492,
2010-08-17, 00:44:04,VALID,1003.5,VALID,0,VALID,92.8892,VALID,0,VALID,26.0596,VALID,28,VALID,1.35195,
2010-08-17, 00:45:04,VALID,1003.53,VALID,0,VALID,91.8136,VALID,0,VALID,26.0596,VALID,2,VALID,0.70625,
2010-08-17, 00:46:04,VALID,1003.52,VALID,0,VALID,91.7297,VALID,0,VALID,26.0187,VALID,355,VALID,0.825,
2010-08-17, 00:47:04,VALID,1003.53,VALID,0,VALID,92.1492,VALID,0,VALID,26.0206,VALID,17,VALID,0.928125,
2010-08-17, 00:48:04,VALID,1003.52,VALID,0,VALID,92.8358,VALID,0,VALID,25.9797,VALID,10,VALID,1.06953,
2010-08-17, 00:49:04,VALID,1003.53,VALID,0,VALID,93.6445,VALID,0.100563,VALID,25.9817,VALID,1,VALID,0.812109,
2010-08-17, 00:50:04,VALID,1003.52,VALID,0,VALID,93.553,VALID,0,VALID,25.9817,VALID,14,VALID,0.896484,
2010-08-17, 00:51:04,VALID,1003.53,VALID,0,VALID,93.2859,VALID,0,VALID,25.9602,VALID,8,VALID,0.685156,
2010-08-17, 00:52:04,VALID,1003.49,VALID,0,VALID,93.5911,VALID,0,VALID,25.9408,VALID,7,VALID,0.528906,
2010-08-17, 00:53:04,VALID,1003.51,VALID,0,VALID,94.3692,VALID,0,VALID,25.9232,VALID,356,VALID,0.750781,
2010-08-17, 00:54:04,VALID,1003.52,VALID,0,VALID,95.3991,VALID,0,VALID,25.8629,VALID,3,VALID,0.562109,
2010-08-17, 00:55:04,VALID,1003.51,VALID,0,VALID,97.2072,VALID,0,VALID,25.8434,VALID,6,VALID,1.01133,
2010-08-17, 00:56:04,VALID,1003.51,VALID,0,VALID,99.7629,VALID,0,VALID,25.8239,VALID,346,VALID,0.718359,
2010-08-17, 00:57:04,VALID,1003.52,VALID,0,VALID,101.281,VALID,0,VALID,25.8259,VALID,29,VALID,0.802344,
2010-08-17, 00:58:04,VALID,1003.55,VALID,0,VALID,103.211,VALID,0,VALID,25.8044,VALID,2,VALID,0.522266,
2010-08-17, 00:59:04,VALID,1003.57,VALID,0,VALID,103.867,VALID,0,VALID,25.8239,VALID,2,VALID,0.762109,
2010-08-17, 01:00:04,VALID,1003.58,VALID,0,VALID,104,VALID,0,VALID,25.8453,VALID,344,VALID,0.49375,
2010-08-17, 01:01:04,VALID,1003.55,VALID,0,VALID,103.974,VALID,0,VALID,25.785,VALID,61,VALID,0.535937,
2010-08-17, 01:02:04,VALID,1003.53,VALID,0,VALID,104,VALID,0.100563,VALID,25.7265,VALID,63,VALID,0.327344,
2010-08-17, 01:03:04,VALID,1003.53,VALID,0,VALID,104,VALID,0,VALID,25.7071,VALID,63,VALID,0.0078125,
2010-08-17, 01:04:04,VALID,1003.51,VALID,0,INVALID,111.595,VALID,0.100563,VALID,25.6681,VALID,59,VALID,0.503906,
2010-08-17, 01:05:04,VALID,1003.51,VALID,0,INVALID,113.075,VALID,0,VALID,25.6292,VALID,53,VALID,0.255078,
2010-08-17, 01:06:04,VALID,1003.48,VALID,0,INVALID,114.845,VALID,0,VALID,25.6097,VALID,42,VALID,0.513281,
2010-08-17, 01:07:04,VALID,1003.47,VALID,0,INVALID,115.593,VALID,0,VALID,25.5902,VALID,42,VALID,0.635156,
2010-08-17, 01:08:04,VALID,1003.41,VALID,0,INVALID,115.898,VALID,0,VALID,25.5318,VALID,49,VALID,0.324219,
2010-08-17, 01:09:04,VALID,1003.4,VALID,0,INVALID,116.386,VALID,0,VALID,25.4539,VALID,49,VALID,0.391406,
2010-08-17, 01:10:04,VALID,1003.36,VALID,0,INVALID,116.897,VALID,0,VALID,25.4577,VALID,65,VALID,0.507422,
2010-08-17, 01:11:04,VALID,1003.3,VALID,0,INVALID,117.172,VALID,0,VALID,25.3779,VALID,46,VALID,0.573828,
2010-08-17, 01:12:04,VALID,1003.23,VALID,0,INVALID,117.309,VALID,0,VALID,25.3195,VALID,46,VALID,0.627734,
2010-08-17, 01:13:04,VALID,1003.19,VALID,0,INVALID,117.469,VALID,0,VALID,25.2825,VALID,1,VALID,0.644531,
2010-08-17, 01:14:04,VALID,1003.1,VALID,0,INVALID,117.607,VALID,0,VALID,25.2027,VALID,11,VALID,0.727344,
2010-08-17, 01:15:04,VALID,1003.02,VALID,0,INVALID,117.805,VALID,0,VALID,25.1832,VALID,1,VALID,0.966016,
2010-08-17, 01:16:04,VALID,1003,VALID,0,INVALID,117.958,VALID,0,VALID,25.2416,VALID,357,VALID,1.19297,
2010-08-17, 01:17:04,VALID,1002.94,VALID,0,INVALID,118.057,VALID,0,VALID,25.3195,VALID,4,VALID,1.73867,
2010-08-17, 01:18:04,VALID,1002.91,VALID,0,INVALID,118.133,VALID,0,VALID,25.4383,VALID,6,VALID,1.15,
2010-08-17, 01:19:04,VALID,1002.86,VALID,0,INVALID,118.126,VALID,0,VALID,25.4948,VALID,3,VALID,1.20313,
2010-08-17, 01:20:04,VALID,1002.85,VALID,0,INVALID,117.996,VALID,0,VALID,25.5532,VALID,359,VALID,1.61953,
2010-08-17, 01:21:04,VALID,1002.85,VALID,0,INVALID,117.79,VALID,0,VALID,25.6311,VALID,358,VALID,1.55586,
2010-08-17, 01:22:04,VALID,1002.8,VALID,0,INVALID,117.546,VALID,0,VALID,25.7109,VALID,5,VALID,1.62969,
2010-08-17, 01:23:04,VALID,1002.79,VALID,0,INVALID,117.202,VALID,0,VALID,25.7674,VALID,1,VALID,1.53047,
2010-08-17, 01:24:04,VALID,1002.77,VALID,0,INVALID,115.936,VALID,0,VALID,25.8278,VALID,5,VALID,1.15,
2010-08-17, 01:25:04,VALID,1002.76,VALID,0,INVALID,114.418,VALID,0,VALID,25.8044,VALID,357,VALID,1.44297,
2010-08-17, 01:26:04,VALID,1002.77,VALID,0,INVALID,112.991,VALID,0,VALID,25.8239,VALID,357,VALID,1.12227,
2010-08-17, 01:27:04,VALID,1002.79,VALID,0,INVALID,112.93,VALID,0,VALID,25.8239,VALID,360,VALID,1.19414,
2010-08-17, 01:28:04,VALID,1002.81,VALID,0,INVALID,112.297,VALID,0,VALID,25.8453,VALID,360,VALID,1.29492,
2010-08-17, 01:29:04,VALID,1002.79,VALID,0,INVALID,109.825,VALID,0.100563,VALID,25.8434,VALID,351,VALID,1.43359,
2010-08-17, 01:30:04,VALID,1002.8,VALID,0,VALID,104,VALID,0,VALID,25.8648,VALID,13,VALID,1.10195,
2010-08-17, 01:31:04,VALID,1002.8,VALID,0,VALID,104,VALID,0,VALID,25.8629,VALID,12,VALID,1.03281,
2010-08-17, 01:32:04,VALID,1002.76,VALID,0,VALID,104,VALID,0,VALID,25.8823,VALID,355,VALID,1.32852,
2010-08-17, 01:33:04,VALID,1002.77,VALID,0,VALID,104,VALID,0,VALID,25.9038,VALID,2,VALID,0.96875,
2010-08-17, 01:34:04,VALID,1002.75,VALID,0,VALID,102.601,VALID,0.100563,VALID,25.8823,VALID,351,VALID,0.927344,
2010-08-17, 01:35:04,VALID,1002.76,VALID,0,VALID,104,VALID,0,VALID,25.8823,VALID,1,VALID,1.02031,
2010-08-17, 01:36:04,VALID,1002.77,VALID,0,VALID,104,VALID,0.100563,VALID,25.9018,VALID,360,VALID,1.01289,
2010-08-17, 01:37:04,VALID,1002.76,VALID,0,VALID,104,VALID,0,VALID,25.9038,VALID,357,VALID,0.389844,
2010-08-17, 01:38:04,VALID,1002.8,VALID,0,VALID,104,VALID,0,VALID,25.8843,VALID,6,VALID,0.781641,
2010-08-17, 01:39:04,VALID,1002.77,VALID,0,VALID,104,VALID,0,VALID,25.8434,VALID,10,VALID,0.703906,
2010-08-17, 01:40:04,VALID,1002.75,VALID,0,INVALID,109.497,VALID,0,VALID,25.8434,VALID,13,VALID,0.858984,
2010-08-17, 01:41:04,VALID,1002.77,VALID,0,INVALID,111.885,VALID,0,VALID,25.8239,VALID,27,VALID,1.10039,
2010-08-17, 01:42:04,VALID,1002.75,VALID,0,INVALID,113.091,VALID,0,VALID,25.8453,VALID,358,VALID,1.05625,
2010-08-17, 01:43:04,VALID,1002.72,VALID,0,INVALID,113.777,VALID,0,VALID,25.783,VALID,354,VALID,0.786719,
2010-08-17, 01:44:04,VALID,1002.69,VALID,0,INVALID,113.64,VALID,0,VALID,25.8259,VALID,358,VALID,0.6875,
2010-08-17, 01:45:04,VALID,1002.62,VALID,0,INVALID,114.304,VALID,0.100563,VALID,25.785,VALID,3,VALID,1.03203,
2010-08-17, 01:46:04,VALID,1002.6,VALID,0,INVALID,114.082,VALID,0,VALID,25.7655,VALID,357,VALID,0.592578,
2010-08-17, 01:47:04,VALID,1002.66,VALID,0,INVALID,114.334,VALID,0,VALID,25.746,VALID,357,VALID,0.569531,
2010-08-17, 01:48:04,VALID,1002.66,VALID,0,INVALID,114.647,VALID,0,VALID,25.7265,VALID,358,VALID,0.45,
2010-08-17, 01:49:04,VALID,1002.64,VALID,0,INVALID,114.876,VALID,0,VALID,25.6681,VALID,358,VALID,0.190234,
2010-08-17, 01:50:04,VALID,1002.61,VALID,0,INVALID,114.349,VALID,0,VALID,25.6097,VALID,358,VALID,0.140234,
2010-08-17, 01:51:04,VALID,1002.57,VALID,0,INVALID,115.814,VALID,0,VALID,25.5707,VALID,334,VALID,0.445313,
2010-08-17, 01:52:04,VALID,1002.53,VALID,0,INVALID,116.508,VALID,0,VALID,25.5513,VALID,335,VALID,0.351172,
2010-08-17, 01:53:04,VALID,1002.51,VALID,0,INVALID,116.394,VALID,0,VALID,25.4753,VALID,45,VALID,0.211719,
2010-08-17, 01:54:04,VALID,1002.51,VALID,0,INVALID,116.836,VALID,0.100563,VALID,25.3935,VALID,45,VALID,0.247266,
2010-08-17, 01:55:04,VALID,1002.51,VALID,0,INVALID,117.073,VALID,0,VALID,25.339,VALID,45,VALID,0.220313,
2010-08-17, 01:56:04,VALID,1002.53,VALID,0,INVALID,117.309,VALID,0,VALID,25.2592,VALID,42,VALID,0.548437,
2010-08-17, 01:57:04,VALID,1002.51,VALID,0,INVALID,117.675,VALID,0,VALID,25.2806,VALID,14,VALID,0.449609,
2010-08-17, 01:58:04,VALID,1002.56,VALID,0,INVALID,117.79,VALID,0,VALID,25.2611,VALID,14,VALID,0.145703,
2010-08-17, 01:59:04,VALID,1002.53,VALID,0,INVALID,117.798,VALID,0,VALID,25.2416,VALID,14,VALID,0.00195313,
2010-08-17, 02:00:04,VALID,1002.59,VALID,0,INVALID,117.82,VALID,0,VALID,25.2027,VALID,14,VALID,0,
2010-08-17, 02:01:04,VALID,1002.6,VALID,0,INVALID,117.874,VALID,0,VALID,25.1637,VALID,14,VALID,0,
2010-08-17, 02:02:04,VALID,1002.59,VALID,0,INVALID,117.874,VALID,0,VALID,25.1248,VALID,14,VALID,0,
2010-08-17, 02:03:04,VALID,1002.58,VALID,0,INVALID,117.904,VALID,0,VALID,25.1053,VALID,14,VALID,0,
2010-08-17, 02:04:04,VALID,1002.57,VALID,0,INVALID,117.965,VALID,0,VALID,25.0469,VALID,14,VALID,0.0257812,
2010-08-17, 02:05:04,VALID,1002.61,VALID,0,INVALID,118.019,VALID,0,VALID,25.0274,VALID,14,VALID,0.264453,
2010-08-17, 02:06:04,VALID,1002.59,VALID,0,INVALID,118.087,VALID,0,VALID,25.0488,VALID,14,VALID,0,
2010-08-17, 02:07:04,VALID,1002.59,VALID,0,INVALID,118.072,VALID,0,VALID,25.0079,VALID,2,VALID,0.557031,
2010-08-17, 02:08:04,VALID,1002.58,VALID,0,INVALID,118.072,VALID,0,VALID,25.0274,VALID,356,VALID,0.473437,
2010-08-17, 02:09:04,VALID,1002.6,VALID,0,INVALID,118.126,VALID,0,VALID,25.006,VALID,356,VALID,0.0234375,
2010-08-17, 02:10:04,VALID,1002.56,VALID,0,INVALID,118.164,VALID,0,VALID,24.9866,VALID,356,VALID,0,
2010-08-17, 02:11:04,VALID,1002.55,VALID,0,INVALID,118.156,VALID,0,VALID,24.969,VALID,356,VALID,0.128516,
2010-08-17, 02:12:04,VALID,1002.58,VALID,0,INVALID,118.148,VALID,0,VALID,24.93,VALID,356,VALID,0,
2010-08-17, 02:13:04,VALID,1002.55,VALID,0,INVALID,118.141,VALID,0,VALID,24.9125,VALID,356,VALID,0.304688,
2010-08-17, 02:14:04,VALID,1002.54,VALID,0,INVALID,118.103,VALID,0,VALID,24.8716,VALID,356,VALID,0.196875,
2010-08-17, 02:15:04,VALID,1002.55,VALID,0,INVALID,118.095,VALID,0,VALID,24.8716,VALID,356,VALID,0.280859,
2010-08-17, 02:16:04,VALID,1002.53,VALID,0,INVALID,118.072,VALID,0,VALID,24.8308,VALID,356,VALID,0.238281,
2010-08-17, 02:17:04,VALID,1002.52,VALID,0,INVALID,118.026,VALID,0,VALID,24.8327,VALID,356,VALID,0.155078,
2010-08-17, 02:18:04,VALID,1002.54,VALID,0,INVALID,117.973,VALID,0,VALID,24.8522,VALID,356,VALID,0.228516,
2010-08-17, 02:19:04,VALID,1002.57,VALID,0,INVALID,117.973,VALID,0,VALID,24.8113,VALID,356,VALID,0.194922,
2010-08-17, 02:20:04,VALID,1002.57,VALID,0,INVALID,118.011,VALID,0,VALID,24.8132,VALID,356,VALID,0.281641,
2010-08-17, 02:21:04,VALID,1002.58,VALID,0,INVALID,117.958,VALID,0,VALID,24.7529,VALID,356,VALID,0.359766,
2010-08-17, 02:22:04,VALID,1002.59,VALID,0,INVALID,117.912,VALID,0,VALID,24.7743,VALID,356,VALID,0.321484,
2010-08-17, 02:23:04,VALID,1002.59,VALID,0,INVALID,117.782,VALID,0,VALID,24.7548,VALID,356,VALID,0.492188,
2010-08-17, 02:24:04,VALID,1002.59,VALID,0,INVALID,117.653,VALID,0,VALID,24.7724,VALID,353,VALID,0.512891,
2010-08-17, 02:25:04,VALID,1002.55,VALID,0,INVALID,117.729,VALID,0,VALID,24.7937,VALID,353,VALID,0.221484,
2010-08-17, 02:26:04,VALID,1002.55,VALID,0,INVALID,117.805,VALID,0,VALID,24.7335,VALID,353,VALID,0.198437,
2010-08-17, 02:27:04,VALID,1002.55,VALID,0,INVALID,117.836,VALID,0,VALID,24.714,VALID,353,VALID,0.334766,
2010-08-17, 02:28:04,VALID,1002.51,VALID,0,INVALID,117.744,VALID,0,VALID,24.7159,VALID,353,VALID,0.630469,
2010-08-17, 02:29:04,VALID,1002.51,VALID,0,INVALID,117.752,VALID,0,VALID,24.6769,VALID,360,VALID,0.538672,
2010-08-17, 02:30:04,VALID,1002.55,VALID,0,INVALID,117.614,VALID,0,VALID,24.6556,VALID,11,VALID,0.456641,
2010-08-17, 02:31:04,VALID,1002.53,VALID,0,INVALID,117.508,VALID,0,VALID,24.675,VALID,11,VALID,0.414844,
2010-08-17, 02:32:04,VALID,1002.54,VALID,0,INVALID,117.408,VALID,0,VALID,24.6556,VALID,11,VALID,0.637891,
2010-08-17, 02:33:04,VALID,1002.54,VALID,0,INVALID,117.355,VALID,0,VALID,24.6769,VALID,11,VALID,0.286328,
2010-08-17, 02:34:04,VALID,1002.57,VALID,0,INVALID,117.378,VALID,0,VALID,24.6769,VALID,11,VALID,0.389062,
2010-08-17, 02:35:04,VALID,1002.56,VALID,0,INVALID,117.439,VALID,0,VALID,24.638,VALID,11,VALID,0.130078,
2010-08-17, 02:36:04,VALID,1002.58,VALID,0,INVALID,117.34,VALID,0,VALID,24.6574,VALID,11,VALID,0.610156,
2010-08-17, 02:37:04,VALID,1002.57,VALID,0,INVALID,117.233,VALID,0,VALID,24.6574,VALID,34,VALID,0.194141,
2010-08-17, 02:38:04,VALID,1002.57,VALID,0,INVALID,117.195,VALID,0,VALID,24.6556,VALID,34,VALID,0,
2010-08-17, 02:39:04,VALID,1002.56,VALID,0,INVALID,117.279,VALID,0,VALID,24.638,VALID,34,VALID,0.407031,
2010-08-17, 02:40:04,VALID,1002.54,VALID,0,INVALID,117.271,VALID,0,VALID,24.638,VALID,34,VALID,0.145703,
2010-08-17, 02:41:04,VALID,1002.54,VALID,0,INVALID,117.172,VALID,0,VALID,24.638,VALID,34,VALID,0.00898437,
2010-08-17, 02:42:04,VALID,1002.55,VALID,0,INVALID,117.111,VALID,0,VALID,24.6166,VALID,33,VALID,0,
2010-08-17, 02:43:04,VALID,1002.55,VALID,0,INVALID,117.164,VALID,0,VALID,24.599,VALID,33,VALID,0,
2010-08-17, 02:44:04,VALID,1002.55,VALID,0,INVALID,117.134,VALID,0,VALID,24.5972,VALID,33,VALID,0,
2010-08-17, 02:45:04,VALID,1002.51,VALID,0,INVALID,117.119,VALID,0,VALID,24.5777,VALID,33,VALID,0,
2010-08-17, 02:46:04,VALID,1002.49,VALID,0,INVALID,117.126,VALID,0,VALID,24.5796,VALID,33,VALID,0,
2010-08-17, 02:47:04,VALID,1002.45,VALID,0,INVALID,117.019,VALID,0,VALID,24.5582,VALID,33,VALID,0,
2010-08-17, 02:48:04,VALID,1002.46,VALID,0,INVALID,116.897,VALID,0,VALID,24.5582,VALID,16,VALID,0,
2010-08-17, 02:49:04,VALID,1002.42,VALID,0,INVALID,116.707,VALID,0,VALID,24.5777,VALID,323,VALID,0.580859,
2010-08-17, 02:50:04,VALID,1002.43,VALID,0,INVALID,116.615,VALID,0,VALID,24.638,VALID,328,VALID,0.467187,
2010-08-17, 02:51:04,VALID,1002.42,VALID,0,INVALID,116.661,VALID,0,VALID,24.5972,VALID,340,VALID,0.481641,
2010-08-17, 02:52:04,VALID,1002.36,VALID,0,INVALID,116.752,VALID,0,VALID,24.5777,VALID,353,VALID,0.701953,
2010-08-17, 02:53:04,VALID,1002.37,VALID,0,INVALID,116.791,VALID,0,VALID,24.5796,VALID,357,VALID,0.228125,
2010-08-17, 02:54:04,VALID,1002.35,VALID,0,INVALID,116.806,VALID,0,VALID,24.5388,VALID,357,VALID,0.282031,
2010-08-17, 02:55:04,VALID,1002.35,VALID,0,INVALID,116.913,VALID,0,VALID,24.4998,VALID,357,VALID,0.459766,
2010-08-17, 02:56:04,VALID,1002.34,VALID,0,INVALID,116.836,VALID,0,VALID,24.5017,VALID,357,VALID,0.397266,
2010-08-17, 02:57:04,VALID,1002.34,VALID,0,INVALID,116.722,VALID,0,VALID,24.4609,VALID,357,VALID,0.305078,
2010-08-17, 02:58:04,VALID,1002.31,VALID,0,INVALID,116.699,VALID,0,VALID,24.4609,VALID,357,VALID,0.0867188,
2010-08-17, 02:59:04,VALID,1002.32,VALID,0,INVALID,116.539,VALID,0,VALID,24.4822,VALID,3,VALID,0.814453,
2010-08-17, 03:00:04,VALID,1002.31,VALID,0,INVALID,116.363,VALID,0,VALID,24.4998,VALID,29,VALID,1.06094,
2010-08-17, 03:01:04,VALID,1002.31,VALID,0,INVALID,116.089,VALID,0,VALID,24.5388,VALID,26,VALID,1.00234,
2010-08-17, 03:02:04,VALID,1002.26,VALID,0,INVALID,116.119,VALID,0,VALID,24.5406,VALID,25,VALID,0.505078,
2010-08-17, 03:03:04,VALID,1002.23,VALID,0,INVALID,116.211,VALID,0,VALID,24.4998,VALID,25,VALID,0.215234,
2010-08-17, 03:04:04,VALID,1002.17,VALID,0,INVALID,116.18,VALID,0,VALID,24.5212,VALID,10,VALID,0.522266,
2010-08-17, 03:05:04,VALID,1002.15,VALID,0,INVALID,116.165,VALID,0,VALID,24.4998,VALID,5,VALID,0.494141,
2010-08-17, 03:06:04,VALID,1002.13,VALID,0,INVALID,116.02,VALID,0,VALID,24.5193,VALID,10,VALID,0.670703,
2010-08-17, 03:07:04,VALID,1002.15,VALID,0,INVALID,115.73,VALID,0,VALID,24.599,VALID,356,VALID,1.15117,
2010-08-17, 03:08:04,VALID,1002.14,VALID,0,INVALID,115.379,VALID,0,VALID,24.6964,VALID,350,VALID,1.15117,
2010-08-17, 03:09:04,VALID,1002.18,VALID,0,INVALID,115.051,VALID,0,VALID,24.7937,VALID,4,VALID,0.909766,
2010-08-17, 03:10:04,VALID,1002.15,VALID,0,INVALID,114.838,VALID,0,VALID,24.9106,VALID,358,VALID,1.7668,
2010-08-17, 03:11:04,VALID,1002.15,VALID,0,INVALID,114.998,VALID,0,VALID,25.045,VALID,1,VALID,0.879687,
2010-08-17, 03:12:04,VALID,1002.14,VALID,0,INVALID,115.562,VALID,0,VALID,25.1229,VALID,352,VALID,1.05703,
2010-08-17, 03:13:04,VALID,1002.15,VALID,0,INVALID,116.203,VALID,0,VALID,25.2221,VALID,2,VALID,1.11328,
2010-08-17, 03:14:04,VALID,1002.11,VALID,0,INVALID,116.775,VALID,0,VALID,25.2786,VALID,8,VALID,0.473437,
2010-08-17, 03:15:04,VALID,1002.14,VALID,0,INVALID,117.347,VALID,0,VALID,25.339,VALID,8,VALID,0.317187,
2010-08-17, 03:16:04,VALID,1002.13,VALID,0,INVALID,117.866,VALID,0,VALID,25.339,VALID,8,VALID,0.342187,
2010-08-17, 03:17:05,VALID,1002.14,VALID,0,INVALID,118.133,VALID,0,VALID,25.3195,VALID,24,VALID,0.525781,
2010-08-17, 03:18:05,VALID,1002.13,VALID,0,INVALID,118.21,VALID,0,VALID,25.3176,VALID,11,VALID,0.626172,
2010-08-17, 03:19:05,VALID,1002.09,VALID,0,INVALID,118.263,VALID,0,VALID,25.3565,VALID,24,VALID,0.508984,
2010-08-17, 03:20:05,VALID,1002.09,VALID,0,INVALID,118.347,VALID,0,VALID,25.4169,VALID,24,VALID,0.341406,
2010-08-17, 03:21:05,VALID,1002.07,VALID,0,INVALID,118.377,VALID,0,VALID,25.376,VALID,25,VALID,0.591016,
2010-08-17, 03:22:05,VALID,1002.06,VALID,0,INVALID,118.332,VALID,0,VALID,25.3565,VALID,29,VALID,0.505859,
2010-08-17, 03:23:05,VALID,1002.07,VALID,0,INVALID,118.324,VALID,0.100563,VALID,25.3584,VALID,31,VALID,0.350391,
2010-08-17, 03:24:05,VALID,1002.06,VALID,0,INVALID,118.354,VALID,0,VALID,25.3584,VALID,29,VALID,0.889844,
2010-08-17, 03:25:05,VALID,1002.07,VALID,0,INVALID,118.347,VALID,0.100563,VALID,25.3546,VALID,28,VALID,0.846484,
2010-08-17, 03:26:05,VALID,1002.05,VALID,0,INVALID,118.347,VALID,0,VALID,25.3741,VALID,3,VALID,1.13867,
2010-08-17, 03:27:05,VALID,1002.08,VALID,0,INVALID,118.354,VALID,0.100563,VALID,25.4325,VALID,32,VALID,0.314063,
2010-08-17, 03:28:05,VALID,1002.1,VALID,0,INVALID,118.324,VALID,0.100563,VALID,25.4928,VALID,25,VALID,0.504297,
2010-08-17, 03:29:05,VALID,1002.09,VALID,0,INVALID,118.255,VALID,0.100563,VALID,25.4928,VALID,25,VALID,0,
2010-08-17, 03:30:05,VALID,1002.07,VALID,0,INVALID,118.21,VALID,0.100563,VALID,25.5123,VALID,59,VALID,0.353516,
2010-08-17, 03:31:05,VALID,1002.08,VALID,0,INVALID,118.179,VALID,0.100563,VALID,25.5337,VALID,59,VALID,0.178906,
2010-08-17, 03:32:05,VALID,1002.09,VALID,0,INVALID,118.141,VALID,0,VALID,25.5532,VALID,59,VALID,0,
2010-08-17, 03:33:05,VALID,1002.05,VALID,0,INVALID,118.11,VALID,0.100563,VALID,25.5318,VALID,66,VALID,0.378516,
2010-08-17, 03:34:05,VALID,1002.07,VALID,0,INVALID,118.095,VALID,0.100563,VALID,25.5104,VALID,62,VALID,0.360938,
2010-08-17, 03:35:05,VALID,1002.08,VALID,0,INVALID,118.042,VALID,0,VALID,25.5318,VALID,47,VALID,0.160156,
2010-08-17, 03:36:05,VALID,1002.1,VALID,0,INVALID,118.026,VALID,0.100563,VALID,25.5318,VALID,47,VALID,0.00664063,
2010-08-17, 03:37:05,VALID,1002.1,VALID,0,INVALID,118.034,VALID,0,VALID,25.5123,VALID,75,VALID,0.684766,
2010-08-17, 03:38:05,VALID,1002.08,VALID,0,INVALID,118.034,VALID,0.100563,VALID,25.4714,VALID,89,VALID,0.641797,
2010-08-17, 03:39:05,VALID,1002.09,VALID,0,INVALID,118.065,VALID,0.100563,VALID,25.4734,VALID,89,VALID,0.160156,
2010-08-17, 03:40:05,VALID,1002.11,VALID,0,INVALID,118.049,VALID,0,VALID,25.4753,VALID,62,VALID,0.646484,
2010-08-17, 03:41:05,VALID,1002.19,VALID,0,INVALID,118.103,VALID,0,VALID,25.4753,VALID,354,VALID,0.846875,
2010-08-17, 03:42:05,VALID,1002.25,VALID,0,INVALID,118.118,VALID,0,VALID,25.4734,VALID,20,VALID,0.578516,